DW8548 Weather Reports


time (UTC)temp
C
wind
direction
speed
KPH
gust
KPH
rain 1hr
cm
rain 24hr
cm
rain mn
cm
humidity
%
barometer
mb
20260906214608 10 0 0.0 0.0 0.00 0.00 0.00 87 1028.0
20260906213101 10 0 0.0 1.6 0.00 0.00 0.00 86 1028.0
20260906211605 10 0 0.0 3.2 0.00 0.00 0.00 86 1027.7
20260906210112 10 0 0.0 4.8 0.00 0.00 0.00 86 1027.6
20260906204604 10 0 0.0 6.4 0.00 0.00 0.00 86 1027.7
20260906203105 10 0 0.0 3.2 0.00 0.00 0.00 87 1027.6
20260906201637 9 0 0.0 3.2 0.00 0.00 0.00 87 1027.4
20260906200101 10 0 0.0 0.0 0.00 0.00 0.00 86 1027.4
20260906194609 9 0 0.0 1.6 0.00 0.00 0.00 87 1027.2
20260906193101 10 0 0.0 3.2 0.00 0.00 0.00 85 1027.2
20260906191612 9 251 0.0 4.8 0.00 0.00 0.00 87 1027.2
20260906190103 10 0 0.0 3.2 0.00 0.00 0.00 85 1027.4
20260906184605 10 101 0.0 3.2 0.00 0.00 0.00 85 1027.5
20260906183105 10 0 0.0 1.6 0.00 0.00 0.00 85 1027.5
20260906181633 10 0 0.0 0.0 0.00 0.00 0.00 84 1027.5
20260906180106 10 0 0.0 3.2 0.00 0.00 0.00 82 1027.7
20260906174611 10 0 0.0 3.2 0.00 0.00 0.00 82 1027.6
20260906173106 11 0 0.0 6.4 0.00 0.00 0.00 81 1027.7
20260906171603 10 0 0.0 4.8 0.00 0.00 0.00 81 1027.6
20260906170106 10 0 0.0 4.8 0.00 0.00 0.00 80 1027.5
20260906164602 11 154 0.0 6.4 0.00 0.00 0.00 80 1027.6
20260906163112 11 0 0.0 8.0 0.00 0.00 0.00 78 1027.6
20260906161610 11 0 0.0 4.8 0.00 0.00 0.00 77 1027.5
20260906160059 11 0 1.6 9.7 0.00 0.00 0.00 77 1027.3
20260906154601 11 103 1.6 11.3 0.00 0.00 0.00 76 1027.5
20260906153107 11 59 1.6 8.0 0.00 0.00 0.00 77 1027.3
20260906151606 11 0 0.0 3.2 0.00 0.00 0.00 78 1027.5
20260906144605 11 0 0.0 6.4 0.00 0.00 0.00 76 1027.6
20260906143103 12 0 0.0 6.4 0.00 0.00 0.00 75 1027.5
20260906141601 12 171 0.0 8.0 0.00 0.00 0.00 76 1027.4
20260906140108 12 0 0.0 8.0 0.00 0.00 0.00 75 1027.4
20260906134610 12 123 1.6 6.4 0.00 0.03 0.00 75 1027.3
20260906133104 12 114 1.6 8.0 0.00 0.03 0.00 75 1027.4
20260906131602 12 161 0.0 6.4 0.00 0.03 0.00 75 1027.3
20260906130113 12 131 1.6 9.7 0.00 0.03 0.00 74 1027.3
20260906124602 13 122 1.6 9.7 0.00 0.05 0.00 74 1027.2
20260906123100 13 208 1.6 9.7 0.00 0.05 0.00 73 1027.0
20260906121620 13 137 3.2 9.7 0.00 0.05 0.00 73 1026.8
20260906114614 13 0 1.6 12.9 0.00 0.46 0.00 72 1026.6
20260906113114 13 159 1.6 8.0 0.00 0.46 0.00 71 1026.5
20260906111600 14 119 1.6 9.7 0.00 0.46 0.00 71 1026.5
20260906104610 15 126 1.6 11.3 0.00 0.46 0.00 69 1026.2
20260906103104 15 184 3.2 12.9 0.00 0.46 0.00 67 1025.9
20260906101605 15 157 1.6 12.9 0.00 0.46 0.00 67 1025.6
20260906100108 15 121 3.2 11.3 0.00 0.46 0.00 66 1025.5
20260906094601 16 114 1.6 11.3 0.00 0.46 0.00 65 1025.2
20260906093058 16 97 1.6 14.5 0.00 0.46 0.00 64 1024.9
20260906091614 16 186 1.6 11.3 0.00 0.46 0.00 65 1024.7
20260906090111 16 99 1.6 17.7 0.00 0.46 0.00 64 1024.4
20260906084602 17 69 1.6 14.5 0.00 0.46 0.00 63 1024.4
20260906083104 17 105 3.2 12.9 0.00 0.46 0.00 61 1024.3
20260906081601 17 122 3.2 12.9 0.00 0.46 0.00 60 1024.2
20260906080111 17 90 3.2 11.3 0.00 0.46 0.00 61 1024.0
20260906074604 18 134 3.2 9.7 0.00 0.46 0.00 62 1023.9
20260906073059 17 119 4.8 14.5 0.00 0.46 0.00 63 1023.9
20260906071614 18 154 3.2 12.9 0.00 0.46 0.00 62 1023.7
20260906070109 17 51 4.8 16.1 0.00 0.46 0.00 64 1023.8
20260906064603 16 133 1.6 9.7 0.00 0.46 0.00 66 1023.9
20260906063101 16 87 3.2 9.7 0.00 0.46 0.00 66 1023.8
20260906061605 16 0 3.2 16.1 0.00 0.46 0.00 65 1023.6
20260906060151 17 153 3.2 14.5 0.00 0.46 0.00 65 1023.6
20260906054613 16 136 3.2 11.3 0.00 0.56 0.00 66 1023.6
20260906053102 17 129 1.6 12.9 0.00 0.56 0.00 65 1023.5
20260906051605 16 113 3.2 16.1 0.00 0.56 0.00 66 1023.6
20260906050116 16 69 4.8 14.5 0.00 0.56 0.00 68 1023.7
20260906044600 16 171 4.8 16.1 0.00 0.56 0.00 67 1023.8
20260906043109 16 186 4.8 17.7 0.00 0.56 0.00 69 1023.8
20260906041604 16 192 3.2 19.3 0.00 0.56 0.00 70 1023.9
20260906040100 16 69 3.2 16.1 0.00 0.56 0.00 68 1024.0
20260906034603 15 117 3.2 12.9 0.00 0.56 0.00 71 1024.1
20260906033101 16 40 3.2 12.9 0.00 0.56 0.00 70 1024.2
20260906031630 15 142 3.2 12.9 0.00 0.56 0.00 72 1024.0
20260906030100 15 77 4.8 14.5 0.00 0.56 0.00 71 1024.1
20260906024604 15 109 4.8 19.3 0.00 0.56 0.00 72 1023.8
20260906023113 15 234 4.8 17.7 0.00 0.56 0.00 74 1023.8
20260906021607 15 84 3.2 19.3 0.00 0.56 0.00 74 1023.8
20260906014634 14 23 4.8 17.7 0.00 0.56 0.00 76 1023.8
20260906013101 15 186 3.2 14.5 0.00 0.56 0.00 78 1023.6
20260906011617 14 143 3.2 16.1 0.00 0.56 0.00 79 1023.5
20260906010107 14 188 1.6 9.7 0.00 0.56 0.00 82 1023.1
20260906004614 13 98 1.6 12.9 0.00 0.56 0.00 84 1022.9
20260906003102 13 147 3.2 12.9 0.00 0.56 0.00 85 1022.8
20260906001609 12 243 1.6 9.7 0.00 0.56 0.00 87 1022.7
20260906000109 12 98 3.2 9.7 0.00 0.56 0.00 88 1022.4
20260905234601 12 0 0.0 8.0 0.00 0.56 0.00 89 1022.3
20260905233104 12 145 1.6 9.7 0.00 0.56 0.00 90 1021.9
20260905231618 12 85 1.6 11.3 0.00 0.56 0.00 91 1021.5
20260905230108 11 219 1.6 9.7 0.00 0.56 0.00 91 1021.3
20260905224600 11 198 0.0 11.3 0.00 0.56 0.00 91 1021.0
20260905223105 12 198 0.0 8.0 0.00 0.56 0.00 92 1020.5
20260905221619 12 200 1.6 6.4 0.00 0.56 0.00 92 1020.4
20260905220104 12 0 3.2 9.7 0.00 0.56 0.00 92 1020.2